This is the latest recevied weather packets stored in our database for station/object KF6GPE. If no packets are shown the sender has not sent any weather packets the latest 1 day(s).
| Time | Temp. | Humidity | Pressure | Rain* | Wind** | Luminosity | Snow |
|---|---|---|---|---|---|---|---|
| 1778019603 | 14.44° C | 79% | 989.1 hPa | 0 mm | 0 m/s | 1005 W/m² | - |
| 1778019003 | 14.44° C | 79% | 989 hPa | 0 mm | 0.89 m/s, 221° | 1006 W/m² | - |
| 1778018404 | 14.44° C | 78% | 989 hPa | 0 mm | 0.45 m/s, 118° | 1007 W/m² | - |
| 1778017802 | 14.44° C | 80% | 989.1 hPa | 0 mm | 0 m/s | 1007 W/m² | - |
| 1778017203 | 14.44° C | 78% | 989.1 hPa | 0 mm | 0.89 m/s, 143° | 1005 W/m² | - |
| 1778016603 | 15° C | 78% | 989.2 hPa | 0 mm | 0 m/s | 1005 W/m² | - |
| 1778016002 | 14.44° C | 79% | 989.2 hPa | 0 mm | 0.45 m/s, 163° | 1018 W/m² | - |
| 1778015403 | 14.44° C | 80% | 989.1 hPa | 0 mm | 0.89 m/s, 205° | 1017 W/m² | - |
| 1778014803 | 13.89° C | 82% | 989.2 hPa | 0 mm | 0.89 m/s, 141° | 1014 W/m² | - |
| 1778014203 | 13.89° C | 83% | 989.2 hPa | 0 mm | 0.89 m/s, 135° | 1009 W/m² | - |
| 1778013605 | 13.33° C | 84% | 989.3 hPa | 0 mm | 0 m/s | 1011 W/m² | - |
| 1778013003 | 13.33° C | 88% | 989.2 hPa | 0 mm | 0.89 m/s, 149° | 1016 W/m² | - |
| 1778012402 | 12.78° C | 90% | 989.3 hPa | 0 mm | 0.45 m/s, 163° | 1008 W/m² | - |
| 1778011803 | 12.78° C | 89% | 989.5 hPa | 0 mm | 0.45 m/s, 218° | 1006 W/m² | - |
| 1778011204 | 12.78° C | 90% | 989.5 hPa | 0 mm | 0 m/s | 1008 W/m² | - |
| 1778010603 | 12.78° C | 90% | 989.5 hPa | 0 mm | 0.45 m/s, 219° | 1007 W/m² | - |
| 1778010003 | 12.78° C | 90% | 989.6 hPa | 0 mm | 0.45 m/s, 125° | 1006 W/m² | - |
| 1778009402 | 12.78° C | 88% | 989.5 hPa | 0 mm | 0 m/s | 1006 W/m² | - |
| 1778008803 | 12.78° C | 87% | 989.5 hPa | 0 mm | 0 m/s | 1005 W/m² | - |
| 1778008204 | 12.78° C | 87% | 989.4 hPa | 0 mm | 0.89 m/s, 154° | 1005 W/m² | - |
| 1778007603 | 12.78° C | 87% | 989.5 hPa | 0 mm | 0.45 m/s, 132° | 1006 W/m² | - |
| 1778007003 | 12.78° C | 87% | 989.4 hPa | 0 mm | 0.45 m/s, 158° | 1007 W/m² | - |
| 1778006403 | 12.78° C | 86% | 989.4 hPa | 0 mm | 0 m/s | 1008 W/m² | - |
| 1778005802 | 12.78° C | 86% | 989.4 hPa | 0 mm | 0 m/s | 1006 W/m² | - |
| 1778005203 | 12.78° C | 85% | 989.4 hPa | 0 mm | 0.45 m/s, 130° | 1005 W/m² | - |
* Rain latest hour (hover to see other rain measurements)
** Current wind speed in m/s (hover to see current wind gust speed)